When you browse on this site, cookies collect data to enhance your experience and personalize the content and advertising you see.
Visit our Privacy Policy to learn more. By continuing to use the site, you agree to this use of cookies and data.
  • In Hungary
  • List of Countries
  • For 7 days
  • Water Temperature
  • Weather Map
  • News
  • Weather Widgets
  • user-avatar
    Login

    Hourly Weather Naours

    Today, 10 December, Tuesday

    Time Temperature Precipitation Wind Pressure Humidity
    00:00 +3°C° 0 mm 1 mps 757 mmHg 85%
    01:00 +3°C° 0 mm 1 mps 757 mmHg 84%
    02:00 +2°C° 0 mm 2 mps 757 mmHg 84%
    03:00 +2°C° 0 mm 2 mps 757 mmHg 84%
    04:00 +2°C° 0 mm 2 mps 757 mmHg 85%
    05:00 +1°C° 0 mm 3 mps 757 mmHg 87%
    06:00 -1°C° 0 mm 4 mps 757 mmHg 91%
    07:00 0°C° 0 mm 4 mps 757 mmHg 89%
    08:00 0°C° 0 mm 5 mps 756 mmHg 87%
    09:00 +1°C° 0 mm 6 mps 756 mmHg 85%
    10:00 +2°C° 0 mm 6 mps 755 mmHg 81%
    11:00 +3°C° 0 mm 7 mps 755 mmHg 77%
    12:00 +4°C° 0 mm 8 mps 754 mmHg 71%
    13:00 +4°C° 0 mm 8 mps 753 mmHg 72%
    14:00 +4°C° 0 mm 8 mps 752 mmHg 73%
    15:00 +3°C° 0 mm 9 mps 751 mmHg 75%
    16:00 +3°C° 0.1 mm 9 mps 750 mmHg 77%
    17:00 +3°C° 0.1 mm 9 mps 750 mmHg 78%
    18:00 +3°C° 0.1 mm 9 mps 749 mmHg 80%
    19:00 +3°C° 0 mm 10 mps 748 mmHg 81%
    20:00 +3°C° 0 mm 10 mps 748 mmHg 82%
    21:00 +3°C° 0 mm 10 mps 747 mmHg 82%
    22:00 +5°C° 0.2 mm 9 mps 747 mmHg 84%
    23:00 +5°C° 0.2 mm 8 mps 747 mmHg 86%

    Tomorrow, 11 December, Wednesday

    Time Temperature Precipitation Wind Pressure Humidity
    00:00 +5°C° 0.2 mm 8 mps 746 mmHg 87%
    01:00 +5°C° 0.4 mm 6 mps 746 mmHg 89%
    02:00 +6°C° 0.4 mm 4 mps 746 mmHg 91%
    03:00 +6°C° 0.4 mm 2 mps 746 mmHg 93%
    04:00 +6°C° 0.1 mm 2 mps 745 mmHg 91%
    05:00 +6°C° 0.1 mm 2 mps 745 mmHg 88%
    06:00 +6°C° 0.1 mm 2 mps 745 mmHg 86%
    07:00 +6°C° 0 mm 2 mps 745 mmHg 86%
    08:00 +6°C° 0 mm 2 mps 745 mmHg 86%
    09:00 +4°C° 0 mm 3 mps 745 mmHg 86%
    10:00 +5°C° 0.1 mm 4 mps 744 mmHg 82%
    11:00 +6°C° 0.1 mm 5 mps 744 mmHg 78%
    12:00 +5°C° 0.1 mm 6 mps 744 mmHg 73%
    13:00 +6°C° 0 mm 5 mps 743 mmHg 74%
    14:00 +6°C° 0 mm 5 mps 742 mmHg 75%
    15:00 +5°C° 0 mm 4 mps 741 mmHg 76%
    16:00 +5°C° 0.2 mm 5 mps 741 mmHg 80%
    17:00 +3°C° 0.2 mm 5 mps 741 mmHg 84%
    18:00 +2°C° 0.2 mm 5 mps 740 mmHg 87%
    19:00 +2°C° 0.7 mm 5 mps 740 mmHg 89%
    20:00 +3°C° 0.7 mm 4 mps 741 mmHg 90%
    21:00 +3°C° 0.7 mm 4 mps 741 mmHg 92%
    22:00 +3°C° 0.2 mm 4 mps 741 mmHg 89%
    23:00 +1°C° 0.2 mm 4 mps 741 mmHg 86%

    Day after tomorrow, 12 December, Thursday

    Time Temperature Precipitation Wind Pressure Humidity
    00:00 +2°C° 0.2 mm 3 mps 741 mmHg 83%
    01:00 +2°C° 0 mm 3 mps 741 mmHg 84%
    02:00 +1°C° 0 mm 3 mps 741 mmHg 85%
    03:00 +1°C° 0 mm 3 mps 741 mmHg 85%
    04:00 0°C° 0 mm 4 mps 741 mmHg 86%
    05:00 0°C° 0 mm 4 mps 742 mmHg 87%
    06:00 -1°C° 0 mm 4 mps 742 mmHg 88%
    07:00 0°C° 0 mm 4 mps 741 mmHg 88%
    08:00 0°C° 0 mm 4 mps 741 mmHg 88%
    09:00 0°C° 0 mm 5 mps 741 mmHg 88%
    10:00 +1°C° 0 mm 5 mps 740 mmHg 84%
    11:00 +2°C° 0 mm 6 mps 739 mmHg 80%
    12:00 +3°C° 0 mm 7 mps 738 mmHg 75%
    13:00 +2°C° 0 mm 8 mps 736 mmHg 77%
    14:00 +2°C° 0 mm 8 mps 734 mmHg 78%
    15:00 +1°C° 0 mm 9 mps 732 mmHg 80%
    16:00 +2°C° 1.7 mm 10 mps 730 mmHg 83%
    17:00 +2°C° 1.7 mm 11 mps 728 mmHg 87%
    18:00 +2°C° 1.7 mm 12 mps 726 mmHg 90%
    19:00 +3°C° 1.8 mm 12 mps 724 mmHg 90%
    20:00 +4°C° 1.8 mm 11 mps 723 mmHg 89%
    21:00 +6°C° 1.8 mm 10 mps 721 mmHg 89%
    22:00 +6°C° 1 mm 10 mps 721 mmHg 88%
    23:00 +5°C° 1 mm 10 mps 721 mmHg 87%

    13 December, Friday

    Time Temperature Precipitation Wind Pressure Humidity
    00:00 +5°C° 1 mm 10 mps 720 mmHg 87%
    01:00 +5°C° 0.8 mm 10 mps 720 mmHg 83%
    02:00 +3°C° 0.8 mm 10 mps 720 mmHg 80%
    03:00 +3°C° 0.8 mm 10 mps 721 mmHg 76%
    04:00 +3°C° 0.2 mm 10 mps 721 mmHg 77%
    05:00 +2°C° 0.2 mm 10 mps 721 mmHg 78%
    06:00 +2°C° 0.2 mm 10 mps 722 mmHg 79%
    07:00 +2°C° 0.2 mm 10 mps 722 mmHg 78%
    08:00 +2°C° 0.2 mm 10 mps 723 mmHg 77%
    09:00 +2°C° 0.2 mm 10 mps 723 mmHg 76%
    10:00 +3°C° 0.2 mm 11 mps 724 mmHg 74%
    11:00 +3°C° 0.2 mm 12 mps 725 mmHg 71%
    12:00 +4°C° 0.2 mm 12 mps 726 mmHg 68%
    13:00 +4°C° 0 mm 12 mps 727 mmHg 70%
    14:00 +4°C° 0 mm 11 mps 728 mmHg 72%
    15:00 +5°C° 0 mm 10 mps 729 mmHg 74%
    16:00 +5°C° 0 mm 9 mps 729 mmHg 75%
    17:00 +4°C° 0 mm 8 mps 730 mmHg 76%
    18:00 +4°C° 0 mm 7 mps 731 mmHg 77%
    19:00 +4°C° 0 mm 7 mps 731 mmHg 79%
    20:00 +4°C° 0 mm 6 mps 730 mmHg 82%
    21:00 +3°C° 0 mm 6 mps 730 mmHg 84%
    22:00 +4°C° 0.4 mm 7 mps 729 mmHg 86%
    23:00 +6°C° 0.4 mm 8 mps 729 mmHg 88%

    14 December, Saturday

    Time Temperature Precipitation Wind Pressure Humidity
    00:00 +7°C° 0.4 mm 8 mps 728 mmHg 89%
    01:00 +7°C° 0.3 mm 9 mps 728 mmHg 83%
    02:00 +7°C° 0.3 mm 10 mps 728 mmHg 77%
    03:00 +6°C° 0.3 mm 11 mps 728 mmHg 70%
    04:00 +6°C° 0 mm 10 mps 729 mmHg 71%
    05:00 +5°C° 0 mm 9 mps 730 mmHg 72%
    06:00 +5°C° 0 mm 8 mps 731 mmHg 73%
    07:00 +5°C° 0.2 mm 7 mps 732 mmHg 77%
    08:00 +5°C° 0.2 mm 7 mps 732 mmHg 82%
    09:00 +5°C° 0.2 mm 6 mps 732 mmHg 86%
    10:00 +5°C° 0.3 mm 8 mps 733 mmHg 81%
    11:00 +6°C° 0.3 mm 9 mps 733 mmHg 75%
    12:00 +6°C° 0.3 mm 11 mps 733 mmHg 70%
    13:00 +6°C° 0.2 mm 10 mps 734 mmHg 70%
    14:00 +5°C° 0.2 mm 9 mps 735 mmHg 71%
    15:00 +5°C° 0.2 mm 8 mps 736 mmHg 71%
    16:00 +4°C° 0.1 mm 7 mps 736 mmHg 74%
    17:00 +3°C° 0.1 mm 6 mps 737 mmHg 77%
    18:00 +3°C° 0.1 mm 5 mps 737 mmHg 80%
    19:00 +3°C° 0 mm 5 mps 737 mmHg 81%
    20:00 +2°C° 0 mm 5 mps 737 mmHg 83%
    21:00 +2°C° 0 mm 5 mps 737 mmHg 85%
    22:00 +2°C° 0 mm 6 mps 737 mmHg 85%
    23:00 +3°C° 0 mm 6 mps 736 mmHg 85%

    15 December, Sunday

    Time Temperature Precipitation Wind Pressure Humidity
    00:00 +3°C° 0 mm 7 mps 735 mmHg 85%
    01:00 +4°C° 0.2 mm 8 mps 734 mmHg 85%
    02:00 +5°C° 0.2 mm 8 mps 732 mmHg 86%
    03:00 +6°C° 0.2 mm 9 mps 731 mmHg 86%
    04:00 +5°C° 0.4 mm 10 mps 732 mmHg 79%
    05:00 +4°C° 0.4 mm 11 mps 732 mmHg 73%
    06:00 +4°C° 0.4 mm 12 mps 733 mmHg 66%
    07:00 +3°C° 0 mm 11 mps 735 mmHg 68%
    08:00 +3°C° 0 mm 10 mps 736 mmHg 69%
    09:00 +3°C° 0 mm 9 mps 738 mmHg 71%
    10:00 +3°C° 0.1 mm 9 mps 738 mmHg 70%
    11:00 +5°C° 0.1 mm 10 mps 739 mmHg 69%
    12:00 +5°C° 0.1 mm 10 mps 739 mmHg 68%
    13:00 +5°C° 0 mm 9 mps 740 mmHg 68%
    14:00 +5°C° 0 mm 8 mps 740 mmHg 68%
    15:00 +5°C° 0 mm 7 mps 741 mmHg 68%
    16:00 +4°C° 0 mm 7 mps 741 mmHg 71%
    17:00 +4°C° 0 mm 7 mps 742 mmHg 73%
    18:00 +3°C° 0 mm 7 mps 742 mmHg 76%
    19:00 +3°C° 0 mm 7 mps 743 mmHg 77%
    20:00 +3°C° 0 mm 7 mps 743 mmHg 79%
    21:00 +3°C° 0 mm 7 mps 743 mmHg 80%
    22:00 +3°C° 0 mm 6 mps 743 mmHg 82%
    23:00 +3°C° 0 mm 6 mps 744 mmHg 83%
    Show more